Flag for Puerto Rico Weather past 2 weeks in Ponce, Puerto Rico

Now
75 °F

Passing clouds.


Feels Like: 77 °F
Forecast: 75 / 85 °F
Wind: No wind

Location: Ponce / Mercedita

Current Time: Dec 19, 2014 at 11:14:52 PM

Latest Report: Dec 19, 2014 at 9:50 PM


Visibility: 10 mi

Pressure: 29.95 "Hg

Humidity: 74%

Dew point: 66 °F

Location of PonceLocation

Historic Weather in Ponce — Graph

°F

Ponce temperature yesterday

Maximum temperature yesterday: 84 °F (at 11:50 AM)
Minimum temperature yesterday: 64 °F (at 3:50 AM)
Average temperature yesterday: 71 °F

Past Weeks' High & Low Weather Summary

 TemperatureHumidityPressure
High90 °F (Dec 17, 11:50 AM)100% (Dec 4, 9:50 PM)30.05 "Hg (Dec 4, 9:50 PM)
Low63 °F (Dec 9, 4:50 AM)40% (Dec 8, 12:50 PM)29.80 "Hg (Dec 6, 2:50 PM)
Average77 °F77%29.92 "Hg
* Reported Dec 4 9:50 PM — Dec 19 9:50 PM, Ponce, Weather by CustomWeather, © 2014

Note: Actual official high and low records may vary slightly from our data, if they occured in-between our weather recording intervals... More about our weather records

Advertising

Ponce weather history for previous 24 hours

 ConditionsComfort  
Time TempWeatherWind HumidityBarometerVisibility
9:50 PM
Dec 19
75 °FPassing clouds.No wind74%29.95 "Hg10 mi
8:50 PM75 °FPassing clouds.No wind74%29.94 "Hg10 mi
6:50 PM81 °FPartly sunny.No wind70%29.91 "Hg10 mi
5:50 PM81 °FPartly sunny.9 mph74%29.90 "Hg10 mi
4:50 PM84 °FPassing clouds.12 mph62%29.89 "Hg10 mi
3:50 PM86 °FPassing clouds.12 mph62%29.88 "Hg10 mi
2:50 PM86 °FPassing clouds.12 mph62%29.88 "Hg10 mi
12:50 PM88 °FPassing clouds.12 mph55%29.93 "Hg10 mi
10:50 AM88 °FPassing clouds.12 mph49%29.98 "Hg10 mi
9:50 AM84 °FPassing clouds.12 mph51%29.96 "Hg10 mi
7:50 AM72 °FPassing clouds.6 mph69%29.96 "Hg10 mi
5:50 AM72 °FPassing clouds.No wind83%29.92 "Hg8 mi
4:50 AM72 °FPassing clouds.No wind83%29.92 "Hg8 mi
3:50 AM72 °FPassing clouds.6 mph83%29.92 "Hg8 mi
2:50 AM72 °FPassing clouds.6 mph78%29.93 "Hg8 mi
1:50 AM72 °FPassing clouds.No wind78%29.96 "Hg8 mi
12:50 AM73 °FPassing clouds.6 mph78%29.97 "Hg8 mi
11:50 PM
Dec 18
73 °FPassing clouds.No wind78%29.97 "Hg8 mi
Weather by CustomWeather, © 2014

See weather overviewHow to use our weather pages